• Processing (Info)

  • MPEC 2007-M04 : 2007 LU19

    The following Minor Planet Electronic Circular may be linked-to from your own Web pages, but must not otherwise be redistributed electronically.

    A form allowing access to any MPEC is at the bottom of this page.


    Read MPEC 2007-M03 Read MPEC 2007-M05


    M.P.E.C. 2007-M04                                Issued 2007 June 16, 18:28 UT
    
         The Minor Planet Electronic Circulars contain information on unusual
             minor planets and routine data on comets.  They are published
       on behalf of Commission 20 of the International Astronomical Union by the
              Minor Planet Center, Smithsonian Astrophysical Observatory,
                              Cambridge, MA 02138, U.S.A.
    
                 Prepared using the Tamkin Foundation Computer Network
    
                                  MPC@CFA.HARVARD.EDU
              URL http://www.cfa.harvard.edu/iau/mpc.html  ISSN 1523-6714
    
                                       2007 LU19
    
    Observations:
         K07L19U* C2007 06 15.41058 12 33 05.61 -12 27 51.5          18.8 V EM004E12
         K07L19U  C2007 06 15.41505 12 33 10.97 -12 28 36.1          18.4 R EM004E12
         K07L19U  C2007 06 15.41951 12 33 16.34 -12 29 20.9          18.5 V EM004E12
         K07L19U  C2007 06 15.42847 12 33 27.03 -12 30 49.4          18.6 V EM004E12
         K07L19U  C2007 06 15.43295 12 33 32.39 -12 31 34.0          18.3 R EM004E12
         K07L19U  C2007 06 15.43742 12 33 37.72 -12 32 17.8          18.3 V EM004E12
         K07L19U  C2007 06 15.47999 12 34 28.78 -12 39 18.6          18.3 R EM004E12
         K07L19U  C2007 06 15.48192 12 34 31.09 -12 39 37.5          18.2 R EM004E12
         K07L19U  C2007 06 16.15454 12 48 19.96 -14 30 24.8          18.2 R EM004H36
         K07L19U  C2007 06 16.15897 12 48 26.38 -14 31 02.5          18.2 V EM004703
         K07L19U  C2007 06 16.16089 12 48 27.78 -14 31 25.2          18.7 R EM004H36
         K07L19U  C2007 06 16.16098 12 48 28.87 -14 31 21.2          18.2 V EM004703
         K07L19U  C2007 06 16.16300 12 48 31.24 -14 31 40.4          18.0 V EM004703
         K07L19U  C2007 06 16.16502 12 48 33.66 -14 31 58.7          18.2 V EM004703
         K07L19U  C2007 06 16.16707 12 48 35.12 -14 32 21.6          18.6 R EM004H36
         K07L19U 5C2007 06 16.19282 12 49 07.71 -14 36 24.6          18.5 R EM004673
         K07L19U 5C2007 06 16.19896 12 49 15.00 -14 37 21.8                 EM004673
         K07L19U 5C2007 06 16.20336 12 49 20.29 -14 38 03.3                 EM004673
         K07L19U 5C2007 06 16.20644 12 49 23.92 -14 38 31.2                 EM004673
         K07L19U  C2007 06 16.36662 12 52 44.344-15 02 01.09         18.3 R EM004E12
         K07L19U  C2007 06 16.37023 12 52 48.649-15 02 35.04         18.3 R EM004E12
         K07L19U  C2007 06 16.54445 12 56 17.044-15 29 23.80         18.2 R EM004E12
         K07L19U  C2007 06 16.54829 12 56 21.712-15 29 58.96         18.3 R EM004E12
    
    Observer details:
    673 Table Mountain Observatory, Wrightwood.  Observer J. Young.  0.61-m f/16
        Cassegrain + CCD.
    703 Catalina Sky Survey.  Observer A. R. Gibbs.  Measurers E. C. Beshore,
        A. Boattini, G. J. Garradd, A. R. Gibbs, A. D. Grauer, R. E. Hill,
        R. A. Kowalski, S. M. Larson, R. H. McNaught.  0.68-m Schmidt + CCD.
    E12 Siding Spring Survey.  Observer R. H. McNaught.  Measurers E. C. Beshore,
        E. J. Christensen, G. J. Garradd, A. R. Gibbs, A. D. Grauer, R. E. Hill,
        R. A. Kowalski, S. M. Larson, R. H. McNaught.  0.5-m Uppsala Schmidt + CCD.
    H36 Sandlot Observatory, Scranton.  Observer G. Hug.  0.30-m
        Schmidt-Cassegrain + CCD.
    
    Orbital elements:
    2007 LU19                                           PHA, Earth MOID = 0.0080 AU
    Epoch 2007 Apr. 10.0 TT = JDT 2454200.5                 MPC
    M 352.72859              (2000.0)            P               Q
    n   0.26875549     Peri.  142.57788     -0.89362373     +0.44693767
    a   2.3781057      Node    64.01716     -0.42202712     -0.80565477
    e   0.6264605      Incl.    2.61600     -0.15274078     -0.38880215
    P   3.67           H   21.5           G   0.15           U   8
    Residuals in seconds of arc
    070615 E12  0.3-  0.4+    070616 H36  0.7-  0.2-    070616 673  0.3-  0.4+
    070615 E12  0.1-  0.2+    070616 703  0.9-  0.9-    070616 673  0.1-  0.4+
    070615 E12  0.5+  0.4-    070616 H36  1.9+  0.7-    070616 673  1.0-  1.4+
    070615 E12  0.1+  0.0     070616 703  0.3+  0.6-    070616 E12  0.0   0.2+
    070615 E12  0.1+  0.2-    070616 703  0.4-  0.7-    070616 E12  0.0   0.1+
    070615 E12  0.2-  0.3+    070616 703  0.3-  0.1+    070616 E12  0.3-  0.1+
    070615 E12  0.1-  0.1-    070616 H36  0.5+  1.2+    070616 E12  0.3+  0.1-
    070615 E12  0.2-  0.0     070616 673  0.7+  0.2-
    
    Ephemeris:
    2007 LU19                a,e,i = 2.38, 0.63, 3                   q = 0.8883
    Date    TT    R. A. (2000) Decl.     Delta      r     Elong.  Phase     V
    2007 06 09    10 34.84   +04 59.1    0.100    1.004    80.8    93.6    19.8
    2007 06 14    12 04.43   -08 27.9    0.0884   1.037   101.8    73.4    18.9
    2007 06 19    13 45.12   -21 02.9    0.0970   1.074   124.1    51.6    18.5
    2007 06 24    15 07.13   -27 37.2    0.123    1.112   139.0    36.8    18.7
    2007 06 29    16 02.52   -30 02.5    0.158    1.152   146.6    29.1    19.1
    2007 07 04    16 39.02   -30 44.7    0.200    1.194   149.8    25.4    19.6
    2007 07 09    17 04.16   -30 48.1    0.246    1.237   150.6    23.8    20.0
    2007 07 14    17 22.56   -30 36.6    0.295    1.280   149.9    23.5    20.5
    2007 07 19    17 36.88   -30 19.2    0.347    1.324   148.4    23.7    20.9
    2007 07 24    17 48.67   -29 59.5    0.402    1.369   146.3    24.3    21.3
    2007 07 29    17 58.84   -29 39.0    0.460    1.413   143.9    25.1    21.7
    
    Kyle E. Smalley              (C) Copyright 2007 MPC           M.P.E.C. 2007-M04
    

    Read MPEC 2007-M03 Read MPEC 2007-M05


    MPEC number:

    Enter an MPEC number in one of the following forms:

    • 1997-B01 (the full form)
    • J97B01 (the packed version of the full form)
    • B01 (the abbreviated form)